Regional Weather Roundup
Issued by NWS Wilmington, NC

Home | Current Version | Previous Version | Text Only | Print | Product List | Glossary On
Versions: 1 2 3 4 5 6 7 8 9 10 11 12 13 14 15 16 17 18 19 20 21 22 23 24 25 26 27 28
000
ASUS42 KILM 252310
RWRILM
RWRILM
REGIONAL HOURLY WEATHER ROUNDUP
NATIONAL WEATHER SERVICE WILMINGTON NC
700 PM EDT SAT OCT 25 2014

NOTE: "FAIR" INDICATES FEW OR NO CLOUDS BELOW 12,000 FEET WITH NO
SIGNIFICANT WEATHER AND/OR OBSTRUCTIONS TO VISIBILITY.

...............WFO WILMINGTON COUNTY WARNING AREA...............

......COASTAL NC AND SC COUNTIES......

CITY           SKY/WX    TMP DP  RH WIND       PRES   REMARKS
WILMINGTON     CLEAR     63  52  67 CALM      29.91R
SOUTHPORT      CLEAR     64  51  63 SW3       29.92R
N MYRTLE BEACH CLEAR     63  50  62 W5        29.93R
MYRTLE BEACH   CLEAR     64  46  52 NW6       29.94R

......INLAND NC AND SC COUNTIES.......

CITY           SKY/WX    TMP DP  RH WIND       PRES   REMARKS
LUMBERTON      CLEAR     60  44  55 SW3       29.92S
ELIZABETHTOWN  CLEAR     62  49  61 CALM      29.92R
WHITEVILLE     CLEAR     60  49  67 CALM      29.92R
FLORENCE       CLEAR     64  45  49 CALM      29.94S
DARLINGTON     CLEAR     55  45  67 CALM      29.95R

....................REST OF NORTH CAROLINA......................

.........EASTERN NC.........

CITY           SKY/WX    TMP DP  RH WIND       PRES   REMARKS
CAPE HATTERAS  CLEAR     60  49  66 W6        29.89R
JACKSONVILLE   CLEAR     59  50  72 CALM      29.92R
MOREHEAD CITY  CLEAR     64  52  64 W5        29.91R
KENANSVILLE    CLEAR     56  48  75 CALM      29.92R
NEW BERN       CLEAR     61  52  72 S3        29.91R
ELIZABETH CITY CLEAR     61  46  57 SW5       29.87S

.........CENTRAL NC.........

CITY           SKY/WX    TMP DP  RH WIND       PRES   REMARKS
RALEIGH DURHAM PTCLDY    60  46  59 SW3       29.91S
ROCKY MOUNT    CLEAR     58  51  78 CALM      29.90R
ROANOKE RAPIDS NOT AVBL
FAYETTEVILLE   CLEAR     63  46  54 W3        29.91S
HOFFMAN        CLEAR     57  45  63 S3        29.95R

.........WESTERN NC.........

CITY           SKY/WX    TMP DP  RH WIND       PRES   REMARKS
CHARLOTTE      PTCLDY    64  40  41 W3        29.96R
GREENSBORO     PTCLDY    63  37  38 SW7       29.90F
HICKORY        NOT AVBL
BOONE          NOT AVBL
ASHEVILLE      NOT AVBL

.....................REST OF SOUTH CAROLINA.....................

.........EASTERN SC.........

CITY           SKY/WX    TMP DP  RH WIND       PRES   REMARKS
CHARLESTON     CLEAR     69  48  47 W3        29.96R
BEAUFORT MCAS  CLEAR     64  52  64 CALM      29.97R
HILTON HEAD    NOT AVBL

.........CENTRAL SC.........

CITY           SKY/WX    TMP DP  RH WIND       PRES   REMARKS
COLUMBIA       CLEAR     67  47  48 CALM      29.95S
ORANGEBURG     CLEAR     62  48  60 SW3       29.96S
SUMTER SHAW    CLEAR     65  46  48 W3        29.94S

.........WESTERN SC.........

CITY           SKY/WX    TMP DP  RH WIND       PRES   REMARKS
GREENVILLE     NOT AVBL
ROCK HILL      CLEAR     55  43  63 S5        29.96R
ANDERSON       CLEAR     65  47  52 CALM      29.97S
CLEMSON        NOT AVBL
GREENWOOD      CLEAR     60  50  69 CALM      30.00R


...................COASTAL AND OFFSHORE REPORTS..................

................LOCAL PIERS AND NC RESERVE................


STATION/POSITION TIME  SKY/WX   TEMP    WIND        PRES    VSBY
                                AIR SEA DIR/SP/G
                 (UTC)          (F)     (DEG/KT/KT) (MB)    (MI)
JOHNY MRCER PIER 2300            68 73  220/ 11/ 12 1012.1R
NC RESRV MASNBRO 2200            68     200/  5     1012.0F
OCEAN CREST PIER 2300            69 70  210/ 14/ 15 1011.8S
SPRINGMAID  PIER 2300            68 69  290/  2/  3 1013.6R


................COASTAL AND OFFSHORE BUOYS................


STATION/POSITION TIME  SKY/WX   TEMP    WIND        PRES    VSBY
                                AIR SEA DIR/SP/G
                 (UTC)          (F)     (DEG/KT/KT) (MB)    (MI)
DIMNDSHOAL 41025 2300            66     270/ 12/ 14 1012.1R
WVE H/P(F/S)=  3/10 WND WVE H/P(F/S)=  2/ 5 SWL H/P/D(F/S/D)=  2/ 60/10

CAPE LOOKOUT     2200            66     220/  6/  8 1012.1F
ONSLOW BAY 41036 2300            69 75  240/  8/ 12 1012.2S
WVE H/P(F/S)=  2/ 9 SWL H/P/D(F/S/D)=  2/ 90/ 9

5 WRITEBCH 41038 2300            66 72  230/ 16/ 17   N/A
MASONBORO  41110 2300               71                N/A
WVE H/P(F/S)=  2/ 9 WND WVE H/P(F/S)=  2/ 9

WILM HARBR 41108 2300               70                N/A
WVE H/P(F/S)=  2/ 8 WND WVE H/P(F/S)=  2/ 8

27WRITEBCH 41037 2200            65 75  230/  8/ 10 1012.7F
FRYING PAN 41013 2300            68 74  230/  8/ 10 1014.2F
WVE H/P(F/S)=  2/ 9 SWL H/P/D(F/S/D)=  2/ 90/ 9

SUNST NRSH 41024 2200            70     230/ 12/ 12 1012.9F
CAPRS NRSH 41029 NOT AVBL
EDISTO     41004 2300            69 77  250/  4/  6 1014.0R
WVE H/P(F/S)=  2/10 SWL H/P/D(F/S/D)=  2/10



..........OFFSHORE BUOYS BEYOND 100 NM OFFSHORE...........
.....IN A TRIANGLE---HAT TO BERMUDA TO BAHAMAS TO HAT.....


STATION/POSITION TIME  SKY/WX   TEMP    WIND        PRES    VSBY
                                AIR SEA DIR/SP/G
                 (UTC)          (F)     (DEG/KT/KT) (MB)    (MI)
150E HAT   41001 NOT AVBL
W BERMUDA  41048 2242            75 79   20/ 12/ 14 1008.7R
WVE H/P(F/S)=  4/ 8 WND WVE H/P(F/S)=  2/ 4 SWL H/P/D(F/S/D)=  3/360/ 8

ATLANTIC S 41049 2206            83 81  190/ 19/ 23 1009.8R
WVE H/P(F/S)=  7/10 WND WVE H/P(F/S)=  5/ 5 SWL H/P/D(F/S/D)=  5/340/10

E BAHAMAS  41046 2221            84 84  210/ 19/ 23 1008.4R
WVE H/P(F/S)=  6/ 6 WND WVE H/P(F/S)=  5/ 6 SWL H/P/D(F/S/D)=  3/ 20/11

NE BAHAMAS 41047 2242            75 81   10/ 21/ 25 1006.7R
WVE H/P(F/S)= 10/ 8 WND WVE H/P(F/S)= 10/ 8 SWL H/P/D(F/S/D)=  2/ 40/15

120E CANVRL41010 2300            76 82  360/ 16/ 19 1013.0R
WVE H/P(F/S)=  4/ 5 WND WVE H/P(F/S)=  3/ 5 SWL H/P/D(F/S/D)=  2/ 70/ 8


END



USA.gov is the U.S. government's official web portal to all federal, state and local government web resources and services.